Location: Unspecified
(0.0000°N, 0.0000°E)
Time: 16:10:51
(UTC+00:00)

Explorer 11/Cluster Stage 4 - Visible Passes

Search period start: 13 December 2018 00:00
Search period end: 23 December 2018 00:00
Orbit: 467 x 1260 km, 28.8° (Epoch: 13 December)

Date Brightness Start Highest point End Pass type
(mag) Time Alt. Az. Time Alt. Az. Time Alt. Az.
13 Dec 9.5 18:40:36 10° S 18:43:01 11° SSE 18:45:20 10° SE visible
13 Dec 8.5 20:27:01 10° SSW 20:32:21 29° S 20:32:21 29° S visible
14 Dec 9.3 18:28:55 10° S 18:32:40 14° SSE 18:36:14 10° SE visible
14 Dec 8.1 20:15:59 10° SW 20:22:27 36° SSE 20:22:27 36° SSE visible
15 Dec 9.3 18:17:33 10° SSW 18:22:15 16° SSE 18:26:45 10° ESE visible
15 Dec 7.8 20:05:01 10° SW 20:12:25 43° SSE 20:12:35 43° SSE visible
15 Dec 9.8 21:54:36 10° WSW 21:54:44 10° WSW 21:54:44 10° WSW visible
16 Dec 7.5 19:54:05 10° SW 20:01:52 52° SSE 20:02:44 50° SE visible
16 Dec 9.7 21:44:01 10° WSW 21:44:53 13° WSW 21:44:53 13° WSW visible
17 Dec 7.4 19:43:14 10° SW 19:51:16 62° SSE 19:52:55 51° ESE visible
17 Dec 9.5 21:33:30 10° W 21:35:04 16° W 21:35:04 16° W visible
18 Dec 7.4 19:32:25 10° SW 19:40:38 73° SSE 19:43:07 46° ENE visible
18 Dec 9.3 21:23:02 10° W 21:25:17 19° W 21:25:17 19° W visible
19 Dec 7.4 19:21:40 10° WSW 19:29:59 85° SSE 19:33:21 38° ENE visible
19 Dec 9.2 21:12:38 10° W 21:15:31 20° WNW 21:15:31 20° WNW visible
20 Dec 7.5 19:10:58 10° WSW 19:19:18 83° NNW 19:23:36 30° NE visible
20 Dec 9.1 21:02:19 10° W 21:05:45 21° WNW 21:05:45 21° WNW visible
21 Dec 7.6 19:00:20 10° WSW 19:08:37 72° NNW 19:13:51 23° NE visible
21 Dec 9.1 20:52:04 10° WNW 20:56:00 21° NW 20:56:00 21° NW visible
22 Dec 7.8 18:49:45 10° WSW 18:57:55 62° NNW 19:04:06 18° NE visible
22 Dec 9.1 20:41:55 10° WNW 20:46:15 20° NW 20:46:15 20° NW visible
